Regional Weather Roundup
Issued by NWS

Home | Current Version | Previous Version | Graphics & Text | Print | Product List | Glossary Off
Versions: 1 2 3 4 5 6 7 8 9 10 11 12 13 14 15 16 17 18 19 20 21 22 23 24 25 26 27 28 29 30 31 32 33 34 35 36 37 38 39 40 41 42 43 44 45 46 47 48 49 50

857
ASUS43 KTOP 101659
RWRKS

WEATHER ROUNDUP FOR KANSAS
NATIONAL WEATHER SERVICE GOODLAND KS
1100 AM CST SUN DEC 10 2017

NOTE:  "FAIR" INDICATES FEW OR NO CLOUDS BELOW 12,000 FEET WITH NO
SIGNIFICANT WEATHER AND/OR OBSTRUCTIONS TO VISIBILITY.

KSZ001>006-013>018-027>032-041>047-101800-
NORTHWEST KANSAS

CITY           SKY/WX    TMP DP  RH WIND       PRES   REMARKS
GOODLAND       SUNNY     54   5  14 NW16G26   30.36R
HAYS           SUNNY     57  13  17 NW16      30.28R
HILL CITY      SUNNY     56  12  17 NW15      30.30R
RUSSELL        SUNNY     57  13  17 NW17      30.25S
$$

KSZ061>065-074>080-084>089-101800-
SOUTHWEST KANSAS

CITY           SKY/WX    TMP DP  RH WIND       PRES   REMARKS
DODGE CITY     SUNNY     55  10  16 NW14      30.36R
GARDEN CITY    SUNNY     53   7  15 NW14      30.37S
GREAT BEND     SUNNY     57  13  17 NW17      30.28S
LIBERAL        SUNNY     57   7  13 NW14      30.39S
$$

KSZ066>073-081>083-090>101-101800-
SOUTHEAST KANSAS

CITY           SKY/WX    TMP DP  RH WIND       PRES   REMARKS
CHANUTE        SUNNY     53  22  29 NW8       30.20R
COFFEYVILLE    SUNNY     54  22  28 NW14      30.22S
HUTCHINSON     SUNNY     56  16  20 NW14      30.25R
MEDICINE LODGE   N/A     58  13  17 NW15G25   30.30S
NEWTON         SUNNY     55  16  21 NW23      30.23R
PARSONS        SUNNY     53  22  29 NW10      30.22R
WICHITA INTL   MOSUNNY   55  15  20 NW16      30.25R
WICHITA JABRA  SUNNY     56  16  20 NW16      30.24R
WICHITA MCCONL SUNNY     55  15  20 NW13      30.24R
WINFIELD       SUNNY     56  17  21 NW14      30.26S
$$

KSZ007>012-019>026-033>040-048>060-102>105-101800-
NORTHEAST KANSAS

CITY           SKY/WX    TMP DP  RH WIND       PRES   REMARKS
CONCORDIA      SUNNY     54  16  22 NW12      30.20R
EMPORIA        SUNNY     54  19  25 NW20G25   30.19R
LAWRENCE       SUNNY     51  24  34 W13       30.15S
MANHATTAN      SUNNY     55  19  24 NW10G17   30.20R
OLATHE IND     SUNNY     48  24  39 NW12      30.15S
OLATHE EXE     SUNNY     47  23  38 NW13G22   30.13S
SALINA         SUNNY     58  18  21 NW17      30.24R
TOPEKA BILLARD SUNNY     49  23  36 W7        30.16S
TOPEKA FORBES  SUNNY     53  20  27 NW15      30.16R
$$




USA.gov is the U.S. government's official web portal to all federal, state and local government web resources and services.